    Orbital elements:
    2023 OQ3                                                 Earth MOID = 0.0048 AU
    Epoch 2023 Sept. 13.0 TT = JDT 2460200.5                Veres                   
    M   0.56689              (2000.0)            P               Q                  
    n   0.51783504     Peri.  234.18084     +0.99703613     -0.02065562             
    a   1.5358251      Node   126.88733     +0.04506912     +0.93750620             
    e   0.4107192      Incl.    5.31658     -0.06235172     +0.34735497             
    P   1.90           H   25.05          G   0.15           U   8                  
    Residuals in seconds of arc
    230725 L51  0.0   0.1+    230725 Z80  0.8-  0.0     230726 C40  0.1+  0.0
    230725 L51  0.3-  0.8-    230725 Z80  0.1+  0.5+    230726 G34  0.3+  0.1+
    230725 L51  0.4+  0.3-    230725 Z80  0.6+  0.8+    230726 C40  0.0   0.2-
    230725 L51  0.4+  0.1-    230725 Z80  0.3+  0.1+    230726 G15  0.3+  0.7+
    230725 L51  0.3+  0.4-    230726 H21  0.0   0.2+    230726 M50  0.1-  0.2-
    230725 L51  0.2+  0.1-    230726 H21  0.2+  0.0     230726 C40  0.2-  0.3-
    230725 L76  0.9+  0.0     230726 H21  0.0   0.2+    230726 M50  0.1+  0.0
    230725 L76  0.1+  0.2-    230726 H21  0.0   0.0     230726 C40  0.1-  0.0
    230725 L76  0.0   0.2-    230726 M49  0.1-  0.1+    230726 G15  0.7-  0.5+
    230725 L76  0.4+  0.1+    230726 M49  0.0   0.1+    230726 C40  0.1-  0.0
    230725 L76  0.3+  0.0     230726 M49  0.4-  0.3+    230726 958  0.1-  0.1+
    230725 L76  0.3+  0.1-    230726 K61  0.1+  0.4-    230726 958  0.2-  0.0
    230725 L01  0.2+  0.2-    230726 K61  0.1-  0.7-    230726 B74  0.3+  0.0
    230725 L01  0.0   0.2-    230726 K61  0.2-  0.6-    230726 L51  0.4+  0.1-
    230725 L01  0.1+  0.3-    230726 G17  0.0   0.0     230726 B74  0.2+  0.1+
    230725 L76  0.6+  0.1+    230726 G17  0.0   0.0     230726 L51  0.1-  0.1+
    230725 L01  0.0   0.1-    230726 G17  0.3-  0.4-    230726 958  0.3-  0.1-
    230725 L01  0.1-  0.2-    230726 G34  0.1+  0.0     230726 Z84  0.4-  0.2+
    230725 L76  0.3+  0.2+    230726 I93  0.1-  0.0     230726 Z84  0.0   0.0
    230725 J95  0.1+  0.2+    230726 G34  0.4+  0.1-    230726 Z84  0.1+  0.1-
    230725 L76  0.1-  0.1-    230726 I93  0.1-  0.1-    230726 L51  0.2+  0.0
    230725 J95  0.2+  0.1-    230726 G15  0.2-  0.2-    230726 B74  0.0   0.1-
    230725 L76  0.1+  0.4-    230726 I93  0.2-  0.0     230727 E23  0.1+  0.7+
    230725 J95  0.1-  0.0     230726 G34  0.6-  0.6-    230727 E23  0.0   0.4+
    230725 J95  0.1-  0.1-    230726 C40  0.0   0.2-    230727 E23  0.0   0.1-
    
    Ephemeris:
    2023 OQ3                 a,e,i = 1.54, 0.41, 5                   q = 0.9050
    Date    TT    R. A. (2000) Decl.     Delta      r    Elong.  Phase     V
    2023 06 27    19 15 05.5 -07 12 18   0.2182  1.2231   159.3    17.1    23.1
    ...
    2023 07 12    19 23 08.5 -06 19 47   0.1187  1.1313   164.3    14.1    21.5
    ...
    2023 07 20    19 34 46.4 -06 38 21   0.07093 1.0849   165.0    14.0    20.3
    ...
    2023 07 26    20 03 58.2 -08 11 34   0.03699 1.0520   168.0    11.6    18.7
    2023 07 27    20 15 01.1 -08 47 10   0.03155 1.0466   169.2    10.4    18.3
    2023 07 28    20 30 41.0 -09 35 50   0.02624 1.0414   170.4     9.4    17.9
    ...
    2023 08 03    04 03 43.5 -07 10 00   0.01398 1.0113    74.9   104.3    19.6
    ...
    2023 08 11    06 24 14.8 +01 58 43   0.05580 0.9754    45.6   132.1    24.7
    ...
    2023 08 26    06 57 10.5 +04 12 38   0.1416  0.9258    49.8   123.4    25.8
    
    M. P. C. Staff               (C) Copyright 2023 MPC           M.P.E.C. 2023-O94
    


    Read MPEC 2023-O93 Read MPEC 2023-O95


    MPEC number:

    Enter an MPEC number in one of the following forms:

    • 1997-B01 (the full form)
    • J97B01 (the packed version of the full form)
    • B01 (the abbreviated form)